Change the Weather History Date:

Wednesday, March 28, 2012

  Actual Average (KTRI) Record (KTRI)
Temperature  
Mean Temperature 58 °F 50 °F  
Max Temperature 73 °F 63 °F 82 °F (1945)
Min Temperature 44 °F 37 °F 19 °F (1955)
Degree Days  
Heating Degree Days 6 15  
Month to date heating degree days 524  
Since 1 July heating degree days 3906  
Cooling Degree Days 0 0  
Month to date cooling degree days 0  
Year to date cooling degree days 0  
Growing Degree Days 8 (Base 50)    
Moisture  
Dew Point 45 °F    
Average Humidity 66    
Maximum Humidity 87    
Minimum Humidity 47    
Precipitation  
Precipitation 0.00 in 0.11 in 0.85 in (1996)
Month to date precipitation 3.10  
Year to date precipitation 9.92  
Snow  
Snow 0.00 in 0.00 in - ()
Month to date snowfall 1.3  
Since 1 July snowfall 12.1  
Snow Depth -    
Sea Level Pressure  
Sea Level Pressure 30.12 in    
Wind  
Wind Speed 6 mph (WSW)    
Max Wind Speed 21 mph    
Max Gust Speed 25 mph    
Visibility 10 miles    
Events      
T = Trace of Precipitation, MM = Missing Value Source: NWS Daily Summary

Daily Weather History Graph

Daily Weather History Graph

Search for Another Location

Airport or City:

Trip Planner

Search our weather history database for the weather conditions in past years. The results will help you decide how hot, cold, wet, or windy it might be!

Date:

Astronomy

Mar. 28, 2012 Rise Set
Actual Time 7:19 AM EDT 7:47 PM EDT
Civil Twilight 6:54 AM EDT 8:13 PM EDT
Nautical Twilight 6:23 AM EDT 8:44 PM EDT
Astronomical Twilight 5:52 AM EDT 9:15 PM EDT
Moon 10:44 AM EDT (3/28) 12:40 AM EDT (3/28)
Length of Visible Light 13h 19m
Length of Day
12h 27m
Waxing Crescent, 30% of the Moon is Illuminated
Mar 28
Waxing Crescent
Mar 30
First Quarter
Apr 6
Full
Apr 13
Last Quarter
Apr 21
New

Hourly Weather History & Observations

Time (EDT) Temp. Windchill Dew Point Humidity Pressure Visibility Wind Dir Wind Speed Gust Speed Precip Events Conditions
12:35 AM 51.8 °F - 41.0 °F 67% 30.19 in 10.0 mi ENE 3.5 mph - N/A   Clear
12:55 AM 48.2 °F - 41.0 °F 76% 30.18 in 10.0 mi ENE 5.8 mph - N/A   Clear
1:15 AM 48.2 °F - 39.2 °F 71% 30.18 in 10.0 mi ENE 4.6 mph - N/A   Clear
1:35 AM 48.2 °F - 39.2 °F 71% 30.18 in 10.0 mi ENE 4.6 mph - N/A   Clear
1:55 AM 48.2 °F - 39.2 °F 71% 30.17 in 10.0 mi ENE 5.8 mph - N/A   Clear
2:15 AM 48.2 °F - 39.2 °F 71% 30.17 in 10.0 mi ENE 5.8 mph - N/A   Clear
2:35 AM 48.2 °F - 39.2 °F 71% 30.17 in 10.0 mi ENE 4.6 mph - N/A   Clear
2:55 AM 48.2 °F - 39.2 °F 71% 30.16 in 10.0 mi ENE 8.1 mph - N/A   Clear
3:15 AM 48.2 °F - 39.2 °F 71% 30.16 in 10.0 mi ENE 4.6 mph - N/A   Clear
3:35 AM 46.4 °F - 39.2 °F 76% 30.16 in 10.0 mi Calm Calm - N/A   Clear
3:55 AM 48.2 °F - 39.2 °F 71% 30.15 in 10.0 mi ENE 6.9 mph - N/A   Clear
4:15 AM 48.2 °F - 39.2 °F 71% 30.14 in 10.0 mi ENE 5.8 mph - N/A   Clear
4:35 AM 48.2 °F - 39.2 °F 71% 30.14 in 10.0 mi ENE 4.6 mph - N/A   Clear
4:55 AM 48.2 °F - 39.2 °F 71% 30.13 in 10.0 mi NE 4.6 mph - N/A   Clear
5:15 AM 46.4 °F 45.2 °F 39.2 °F 76% 30.13 in 10.0 mi NE 3.5 mph - N/A   Clear
5:35 AM 46.4 °F - 39.2 °F 76% 30.13 in 10.0 mi Calm Calm - N/A   Clear
5:55 AM 46.4 °F - 39.2 °F 76% 30.13 in 10.0 mi Calm Calm - N/A   Clear
6:15 AM 46.4 °F - 39.2 °F 76% 30.14 in 10.0 mi Calm Calm - N/A   Clear
6:35 AM 46.4 °F - 41.0 °F 81% 30.15 in 10.0 mi Calm Calm - N/A   Clear
6:55 AM 46.4 °F - 41.0 °F 81% 30.15 in 10.0 mi Calm Calm - N/A   Clear
7:15 AM 44.6 °F - 41.0 °F 87% 30.16 in 10.0 mi Calm Calm - N/A   Clear
7:35 AM 44.6 °F - 41.0 °F 87% 30.17 in 10.0 mi Calm Calm - N/A   Clear
7:55 AM 44.6 °F - 41.0 °F 87% 30.17 in 10.0 mi Calm Calm - N/A   Clear
8:15 AM 46.4 °F - 42.8 °F 87% 30.18 in 10.0 mi Calm Calm - N/A   Clear
8:35 AM 48.2 °F - 42.8 °F 82% 30.18 in 10.0 mi Calm Calm - N/A   Clear
8:55 AM 48.2 °F - 42.8 °F 82% 30.18 in 10.0 mi East 3.5 mph - N/A   Clear
9:15 AM 50.0 °F - 42.8 °F 76% 30.18 in 10.0 mi Calm Calm - N/A   Clear
9:35 AM 51.8 °F - 44.6 °F 76% 30.17 in 10.0 mi East 3.5 mph - N/A   Clear
9:55 AM 53.6 °F - 44.6 °F 72% 30.16 in 10.0 mi Calm Calm - N/A   Clear
10:15 AM 55.4 °F - 44.6 °F 67% 30.16 in 10.0 mi Calm Calm - N/A   Clear
10:35 AM 60.8 °F - 46.4 °F 59% 30.15 in 10.0 mi Variable 5.8 mph - N/A   Clear
10:55 AM 64.4 °F - 46.4 °F 52% 30.15 in 10.0 mi SW 8.1 mph - N/A   Clear
11:15 AM 64.4 °F - 46.4 °F 52% 30.15 in 10.0 mi West 5.8 mph - N/A   Clear
11:35 AM 66.2 °F - 48.2 °F 52% 30.14 in 10.0 mi WSW 6.9 mph - N/A   Clear
11:55 AM 68.0 °F - 48.2 °F 49% 30.13 in 10.0 mi WSW 10.4 mph - N/A   Clear
12:15 PM 69.8 °F - 50.0 °F 49% 30.12 in 10.0 mi WSW 15.0 mph - N/A   Clear
12:55 PM 69.8 °F - 51.8 °F 53% 30.09 in 10.0 mi WSW 16.1 mph - N/A   Clear
1:15 PM 69.8 °F - 51.8 °F 53% 30.08 in 10.0 mi WSW 15.0 mph - N/A   Clear
1:35 PM 69.8 °F - 51.8 °F 53% 30.07 in 10.0 mi WSW 16.1 mph - N/A   Clear
1:55 PM 69.8 °F - 51.8 °F 53% 30.06 in 10.0 mi WSW 12.7 mph - N/A   Clear
2:15 PM 71.6 °F - 51.8 °F 50% 30.05 in 10.0 mi WSW 16.1 mph - N/A   Clear
2:35 PM 71.6 °F - 51.8 °F 50% 30.03 in 10.0 mi WSW 20.7 mph - N/A   Clear
2:55 PM 73.4 °F - 53.6 °F 50% 30.02 in 10.0 mi West 16.1 mph - N/A   Clear
3:15 PM 73.4 °F - 51.8 °F 47% 30.01 in 10.0 mi WSW 16.1 mph - N/A   Partly Cloudy
3:35 PM 73.4 °F - 51.8 °F 47% 30.00 in 10.0 mi West 16.1 mph 25.3 mph N/A   Partly Cloudy
4:15 PM 73.4 °F - 51.8 °F 47% 29.98 in 10.0 mi WSW 13.8 mph - N/A   Clear
4:35 PM 73.4 °F - 51.8 °F 47% 29.98 in 10.0 mi WSW 17.3 mph - N/A   Clear
4:55 PM 73.4 °F - 51.8 °F 47% 29.97 in 10.0 mi West 12.7 mph 24.2 mph N/A   Clear
5:15 PM 73.4 °F - 53.6 °F 50% 29.96 in 10.0 mi WSW 12.7 mph - N/A   Clear
5:35 PM 73.4 °F - 51.8 °F 47% 29.95 in 10.0 mi WSW 20.7 mph 28.8 mph N/A   Clear
5:55 PM 73.4 °F - 51.8 °F 47% 29.95 in 10.0 mi West 18.4 mph - N/A   Clear
6:15 PM 73.4 °F - 51.8 °F 47% 29.95 in 10.0 mi West 15.0 mph - N/A   Partly Cloudy
6:35 PM 71.6 °F - 51.8 °F 50% 29.96 in 10.0 mi West 11.5 mph - N/A   Mostly Cloudy
6:55 PM 71.6 °F - 51.8 °F 50% 29.96 in 10.0 mi Variable 6.9 mph - N/A   Scattered Clouds
7:15 PM 71.6 °F - 51.8 °F 50% 29.96 in 10.0 mi WSW 11.5 mph - N/A   Partly Cloudy
7:35 PM 69.8 °F - 51.8 °F 53% 29.96 in 10.0 mi West 10.4 mph - N/A   Clear
7:55 PM 69.8 °F - 51.8 °F 53% 29.96 in 10.0 mi West 10.4 mph - N/A   Clear
8:15 PM 69.8 °F - 51.8 °F 53% 29.96 in 10.0 mi West 8.1 mph - N/A   Clear
8:35 PM 68.0 °F - 51.8 °F 56% 29.96 in 10.0 mi West 8.1 mph - N/A   Partly Cloudy
8:55 PM 66.2 °F - 51.8 °F 60% 29.96 in 10.0 mi West 5.8 mph - N/A   Clear
9:15 PM 66.2 °F - 51.8 °F 60% 29.98 in 10.0 mi West 3.5 mph - N/A   Clear
9:35 PM 66.2 °F - 51.8 °F 60% 29.97 in 10.0 mi West 5.8 mph - N/A   Clear
9:55 PM 66.2 °F - 53.6 °F 64% 29.98 in 10.0 mi Variable 4.6 mph - N/A   Clear
10:15 PM 66.2 °F - 53.6 °F 64% 29.98 in 10.0 mi WSW 6.9 mph - N/A   Clear
10:35 PM 66.2 °F - 51.8 °F 60% 29.99 in 10.0 mi Calm Calm - N/A   Clear
10:55 PM 66.2 °F - 53.6 °F 64% 29.98 in 10.0 mi Variable 3.5 mph - N/A   Mostly Cloudy
11:15 PM 66.2 °F - 53.6 °F 64% 29.98 in 10.0 mi WSW 5.8 mph - N/A   Mostly Cloudy
11:35 PM 64.4 °F - 51.8 °F 64% 29.98 in 10.0 mi West 4.6 mph - N/A   Scattered Clouds
11:55 PM 64.4 °F - 51.8 °F 64% 29.98 in 10.0 mi Calm Calm - N/A   Clear